Tracking 23731 objects as of 27-Sep-2021
HD Live streaming from Space Station
objects crossing your sky now

STARLINK-2381

Track STARLINK-2381 now!
10-day predictions
STARLINK-2381 is classified as:


NORAD ID: 47800
Int'l Code: 2021-018P
Perigee: 553.7 km
Apogee: 555.0 km
Inclination: 53.1 °
Period: 95.6 minutes
Semi major axis: 6925 km
RCS: Unknown
Launch date: March 11, 2021
Source: United States (US)
Launch site: AIR FORCE EASTERN TEST RANGE (AFETR)
aabbcc
Your satellite tracking list
Your tracking list is empty




NASA's NSSDC Master Catalog

Two Line Element Set (TLE):
1 47800U 21018P   21269.45406066  .00000867  00000-0  77103-4 0  9995
2 47800  53.0554 327.5776 0000967  94.5604 265.5495 15.06398145 31574
Source of the keplerian elements: AFSPC